Terminal Aerodrome Forecast
Issued by NWS

Home | Current Version | Previous Version | Text Only | Print | Product List | Glossary On
Versions: 1 2 3 4 5 6 7 8 9 10 11 12 13 14 15 16 17 18 19 20 21 22 23 24 25 26
000
FTUS43 KDDC 210847 AAA
TAFGCK
TAF AMD
KGCK 210847Z 2109/2206 36010KT 5SM BR OVC003
     FM211300 02010KT 1/4SM FG OVC003
     FM211500 04011KT 1/2SM FG OVC003
     FM211800 05011KT 1 1/2SM -SN OVC003
     FM212200 01020G30KT 2SM -SN OVC008=

USA.gov is the U.S. government's official web portal to all federal, state and local government web resources and services.